Terug naar catalogus

SL-6 R/B(2)

ActiefHEO
NORAD 12827·ROCKET BODY·🇷🇺 Russia

Gelanceerd Sep 11, 1981 vanaf Plesetsk Cosmodrome

Loading…

Volgende Passages (komende 24 uur)

TLE

VersSource: Space-Track

Epoch: Sep 14, 2026, 11:17 UTC

1 12827U 81088F   26257.47080106 -.00000023  00000-0  59570-4 0  9999
2 12827  62.8800 316.0659 4818345 241.8494  61.7413  5.48848779902060

Volg SL-6 R/B(2) in realtime met AllMySat

Download on the App Store